Location: Perryvale
(54.4667°N, 113.3833°W)
Time: 20:41:06
(UTC+00:00)

Vanguard 1 Rocket - Pass Details

Date: 18 May 2024
Orbit: 649 x 4220 km, 34.3° (Epoch: 19 June)

Event Time Altitude Azimuth Distance (km) Brightness Sun altitude
Rises 18:40:04 0° 232° (SW) 7,099 12.1 54.0°
Reaches altitude 10° 18:46:50 10° 221° (SW) 5,392 11.7 54.4°
Maximum altitude 18:56:32 22° 178° (S) 3,356 11.4 54.7°
Drops below altitude 10° 19:02:56 10° 132° (SE) 3,405 10.9 54.9°
Sets 19:05:59 0° 116° (ESE) 3,989 11.0 55.0°
